When you browse on this site, cookies collect data to enhance your experience and personalize the content and advertising you see.
Visit our Privacy Policy to learn more. By continuing to use the site, you agree to this use of cookies and data.
  • în România
  • Lista ţărilor
  • Pe 7 zile
  • Temperatura apei
  • Hartă satelitară
  • Meteo pe hartă
  • Widget-uri
  • user-avatar
    Intrare

    Meteo pe oră la Reading

    Astăzi, 19 Aprilie, Vineri

    Timp Temperatura Precipitaţii Vânt Presiune Umiditate
    00:00 +10°C° 0 mm 3 m/s 766 mmHg 75%
    01:00 +10°C° 0 mm 3 m/s 766 mmHg 78%
    02:00 +10°C° 0 mm 3 m/s 766 mmHg 82%
    03:00 +9°C° 0 mm 3 m/s 766 mmHg 86%
    04:00 +9°C° 0 mm 3 m/s 766 mmHg 87%
    05:00 +9°C° 0 mm 3 m/s 766 mmHg 88%
    06:00 +9°C° 0 mm 3 m/s 767 mmHg 89%
    07:00 +11°C° 0 mm 3 m/s 767 mmHg 84%
    08:00 +13°C° 0 mm 3 m/s 767 mmHg 79%
    09:00 +17°C° 0 mm 4 m/s 768 mmHg 73%
    10:00 +18°C° 0 mm 4 m/s 768 mmHg 68%
    11:00 +19°C° 0 mm 4 m/s 768 mmHg 63%
    12:00 +21°C° 0 mm 5 m/s 768 mmHg 58%
    13:00 +21°C° 0 mm 4 m/s 768 mmHg 57%
    14:00 +21°C° 0 mm 4 m/s 768 mmHg 57%
    15:00 +21°C° 0 mm 3 m/s 768 mmHg 57%
    16:00 +20°C° 0 mm 3 m/s 768 mmHg 61%
    17:00 +19°C° 0 mm 3 m/s 768 mmHg 65%
    18:00 +18°C° 0 mm 3 m/s 768 mmHg 69%
    19:00 +16°C° 0 mm 2 m/s 769 mmHg 70%
    20:00 +15°C° 0 mm 2 m/s 769 mmHg 72%
    21:00 +13°C° 0 mm 2 m/s 769 mmHg 73%
    22:00 +12°C° 0 mm 2 m/s 770 mmHg 77%
    23:00 +12°C° 0 mm 2 m/s 770 mmHg 81%

    Mâine, 20 Aprilie, Sâmbătă

    Timp Temperatura Precipitaţii Vânt Presiune Umiditate
    00:00 +10°C° 0 mm 2 m/s 770 mmHg 84%
    01:00 +9°C° 0 mm 2 m/s 769 mmHg 86%
    02:00 +9°C° 0 mm 3 m/s 769 mmHg 87%
    03:00 +8°C° 0 mm 3 m/s 769 mmHg 88%
    04:00 +8°C° 0 mm 3 m/s 769 mmHg 89%
    05:00 +8°C° 0 mm 3 m/s 769 mmHg 89%
    06:00 +9°C° 0 mm 3 m/s 769 mmHg 90%
    07:00 +11°C° 0 mm 3 m/s 769 mmHg 86%
    08:00 +13°C° 0 mm 3 m/s 769 mmHg 81%
    09:00 +15°C° 0 mm 4 m/s 769 mmHg 76%
    10:00 +18°C° 0 mm 4 m/s 769 mmHg 71%
    11:00 +19°C° 0 mm 4 m/s 769 mmHg 66%
    12:00 +21°C° 0 mm 4 m/s 769 mmHg 61%
    13:00 +21°C° 0 mm 3 m/s 768 mmHg 59%
    14:00 +22°C° 0 mm 3 m/s 768 mmHg 58%
    15:00 +22°C° 0 mm 3 m/s 768 mmHg 56%
    16:00 +21°C° 0 mm 3 m/s 767 mmHg 61%
    17:00 +20°C° 0 mm 3 m/s 767 mmHg 66%
    18:00 +19°C° 0 mm 2 m/s 767 mmHg 72%
    19:00 +17°C° 0 mm 2 m/s 767 mmHg 74%
    20:00 +16°C° 0 mm 2 m/s 767 mmHg 77%
    21:00 +14°C° 0 mm 2 m/s 767 mmHg 79%
    22:00 +13°C° 0 mm 2 m/s 767 mmHg 80%
    23:00 +12°C° 0 mm 2 m/s 767 mmHg 81%

    Poimâine, 21 Aprilie, Duminică

    Timp Temperatura Precipitaţii Vânt Presiune Umiditate
    00:00 +12°C° 0 mm 2 m/s 766 mmHg 81%
    01:00 +10°C° 0 mm 2 m/s 766 mmHg 83%
    02:00 +9°C° 0 mm 2 m/s 765 mmHg 84%
    03:00 +9°C° 0 mm 2 m/s 765 mmHg 85%
    04:00 +9°C° 0 mm 2 m/s 764 mmHg 85%
    05:00 +9°C° 0 mm 2 m/s 764 mmHg 85%
    06:00 +9°C° 0 mm 2 m/s 764 mmHg 86%
    07:00 +12°C° 0 mm 2 m/s 763 mmHg 81%
    08:00 +14°C° 0 mm 2 m/s 763 mmHg 75%
    09:00 +16°C° 0 mm 2 m/s 763 mmHg 70%
    10:00 +18°C° 0 mm 2 m/s 762 mmHg 65%
    11:00 +19°C° 0 mm 2 m/s 762 mmHg 59%
    12:00 +21°C° 0 mm 2 m/s 761 mmHg 54%
    13:00 +21°C° 0 mm 2 m/s 761 mmHg 52%
    14:00 +21°C° 0 mm 2 m/s 760 mmHg 50%
    15:00 +23°C° 0 mm 1 m/s 759 mmHg 49%
    16:00 +22°C° 0 mm 1 m/s 759 mmHg 55%
    17:00 +21°C° 0 mm 1 m/s 758 mmHg 61%
    18:00 +20°C° 0 mm 1 m/s 758 mmHg 67%
    19:00 +18°C° 0 mm 1 m/s 758 mmHg 73%
    20:00 +15°C° 0 mm 2 m/s 758 mmHg 78%
    21:00 +14°C° 0 mm 2 m/s 758 mmHg 84%
    22:00 +13°C° 0 mm 1 m/s 757 mmHg 86%
    23:00 +12°C° 0 mm 1 m/s 757 mmHg 88%

    22 Aprilie, Luni

    Timp Temperatura Precipitaţii Vânt Presiune Umiditate
    00:00 +12°C° 0 mm 1 m/s 756 mmHg 90%
    01:00 +11°C° 0 mm 1 m/s 756 mmHg 90%
    02:00 +11°C° 0 mm 1 m/s 755 mmHg 90%
    03:00 +9°C° 0 mm 2 m/s 754 mmHg 90%
    04:00 +10°C° 0 mm 2 m/s 754 mmHg 90%
    05:00 +10°C° 0 mm 2 m/s 754 mmHg 89%
    06:00 +10°C° 0 mm 2 m/s 753 mmHg 89%
    07:00 +13°C° 0 mm 2 m/s 753 mmHg 83%
    08:00 +16°C° 0 mm 2 m/s 753 mmHg 76%
    09:00 +18°C° 0 mm 3 m/s 753 mmHg 70%
    10:00 +19°C° 0 mm 3 m/s 752 mmHg 65%
    11:00 +20°C° 0 mm 3 m/s 752 mmHg 59%
    12:00 +21°C° 0 mm 4 m/s 752 mmHg 54%
    13:00 +21°C° 0 mm 4 m/s 751 mmHg 54%
    14:00 +21°C° 0 mm 4 m/s 751 mmHg 54%
    15:00 +21°C° 0 mm 4 m/s 750 mmHg 54%
    16:00 +20°C° 0 mm 3 m/s 750 mmHg 60%
    17:00 +19°C° 0 mm 3 m/s 749 mmHg 65%
    18:00 +18°C° 0 mm 3 m/s 749 mmHg 71%
    19:00 +17°C° 0 mm 3 m/s 749 mmHg 72%
    20:00 +14°C° 0 mm 3 m/s 749 mmHg 74%
    21:00 +12°C° 0 mm 3 m/s 749 mmHg 76%
    22:00 +12°C° 0 mm 3 m/s 749 mmHg 76%
    23:00 +11°C° 0 mm 3 m/s 748 mmHg 76%

    23 Aprilie, Marţi

    Timp Temperatura Precipitaţii Vânt Presiune Umiditate
    00:00 +11°C° 0 mm 3 m/s 748 mmHg 76%
    01:00 +11°C° 0 mm 3 m/s 747 mmHg 77%
    02:00 +11°C° 0 mm 3 m/s 747 mmHg 77%
    03:00 +11°C° 0 mm 3 m/s 747 mmHg 78%
    04:00 +11°C° 0 mm 3 m/s 747 mmHg 80%
    05:00 +11°C° 0 mm 3 m/s 746 mmHg 82%
    06:00 +12°C° 0 mm 3 m/s 746 mmHg 84%
    07:00 +13°C° 0.1 mm 3 m/s 746 mmHg 82%
    08:00 +15°C° 0.1 mm 4 m/s 746 mmHg 79%
    09:00 +18°C° 0.1 mm 4 m/s 746 mmHg 77%
    10:00 +18°C° 0.6 mm 4 m/s 746 mmHg 74%
    11:00 +19°C° 0.6 mm 5 m/s 746 mmHg 71%
    12:00 +20°C° 0.6 mm 5 m/s 746 mmHg 68%
    13:00 +20°C° 0.3 mm 5 m/s 746 mmHg 67%
    14:00 +20°C° 0.3 mm 5 m/s 746 mmHg 66%
    15:00 +20°C° 0.3 mm 4 m/s 746 mmHg 65%
    16:00 +19°C° 0 mm 4 m/s 746 mmHg 68%
    17:00 +19°C° 0 mm 3 m/s 746 mmHg 71%
    18:00 +18°C° 0 mm 3 m/s 746 mmHg 74%
    19:00 +16°C° 0 mm 3 m/s 746 mmHg 77%
    20:00 +14°C° 0 mm 3 m/s 747 mmHg 80%
    21:00 +13°C° 0 mm 3 m/s 747 mmHg 83%
    22:00 +12°C° 0 mm 3 m/s 747 mmHg 84%
    23:00 +12°C° 0 mm 3 m/s 747 mmHg 86%

    24 Aprilie, Miercuri

    Timp Temperatura Precipitaţii Vânt Presiune Umiditate
    00:00 +12°C° 0 mm 3 m/s 747 mmHg 87%
    01:00 +12°C° 0 mm 3 m/s 747 mmHg 88%
    02:00 +12°C° 0 mm 3 m/s 747 mmHg 90%
    03:00 +12°C° 0 mm 3 m/s 747 mmHg 91%
    04:00 +12°C° 0 mm 3 m/s 747 mmHg 93%
    05:00 +12°C° 0 mm 3 m/s 748 mmHg 94%
    06:00 +13°C° 0 mm 2 m/s 748 mmHg 96%
    07:00 +13°C° 0.1 mm 3 m/s 748 mmHg 92%
    08:00 +14°C° 0.1 mm 3 m/s 749 mmHg 87%
    09:00 +16°C° 0.1 mm 3 m/s 749 mmHg 83%
    10:00 +17°C° 0.1 mm 4 m/s 749 mmHg 81%
    11:00 +17°C° 0.1 mm 4 m/s 749 mmHg 78%
    12:00 +17°C° 0.1 mm 5 m/s 750 mmHg 76%
    13:00 +17°C° 0.1 mm 5 m/s 749 mmHg 76%
    14:00 +16°C° 0.1 mm 5 m/s 749 mmHg 77%
    15:00 +17°C° 0.1 mm 4 m/s 749 mmHg 78%
    16:00 +15°C° 0.7 mm 4 m/s 749 mmHg 83%
    17:00 +14°C° 0.7 mm 4 m/s 750 mmHg 87%
    18:00 +13°C° 0.7 mm 4 m/s 750 mmHg 91%
    19:00 +13°C° 0 mm 3 m/s 750 mmHg 93%
    20:00 +12°C° 0 mm 3 m/s 750 mmHg 94%
    21:00 +12°C° 0 mm 2 m/s 750 mmHg 96%
    22:00 +12°C° 0 mm 2 m/s 751 mmHg 96%
    23:00 +12°C° 0 mm 2 m/s 751 mmHg 96%
    Arată mai mult